Airfield :
LOGIN :

Register | Disclaimer

   EN    FR    IT 

 










Legend :    VFR   Marginal VFR   IFR   Intensive IFR   Very Intensive IFR
Visi :
Ceiling :
>= 8 km
>= 3000ft
5 to 8 km
1000 to 3000 ft
1500m to 5 km
500 to 1000 ft
800 to 1500m
200 to 500 ft
< 800m
< 200 ft
Symbols :   Thunderstorms  Fog  Heavy snow  Heavy precipitations  Wind > 20 kt
SIGMETs :     Misc.  Thunderstorms  Icing  Turbulence  Mountain Waves  Volcanic Ashes






- Airport Elevation : 36 ft
- IATA code : LTQ


LFAT - Le Touquet

CURRENT METAR :
  • 310100Z AUTO 18007KT 140V210 9999 OVC039 14/10 Q1021

EXPIRED METARs :
  • 310030Z AUTO 19006KT 150V210 9999 OVC041 15/10 Q1022
  • 310000Z AUTO 19008KT 160V230 9999 OVC042 15/11 Q1022
  • 302330Z AUTO 18006KT 160V220 9999 SCT035 OVC043 15/11 Q1022
  • 302300Z AUTO 18005KT 140V200 9999 BKN035 OVC044 14/12 Q1022
  • 302230Z AUTO 17004KT 140V200 9999 OVC033 14/12 Q1022

Expired Forecast.
ATIS : +33 3 21 06 62 84



MET'MAP, your aeronautical weather chart ! - Copyright ORBIFLY December 2007 - Disclaimer

ORBIFLY MET'MAP TEAM :

Programming & Development : Alexandra Zaïnal
Concept & original design : Baudouin d'Aumeries
Assistance for programming : Marc-Olivier Méhu
Technical & hardware support : Manuel Goepfert

Contact : metmap@orbifly.com




SOURCES & CREDITS :

   NOAA